Total_Precipitation_Accumulation
0.66 0.54 0.72 0.77 0.76 0.88 1.27 1.32 1.25 0.75 0.49 0.45 0.46 0.52 0.52 0.48 0.44 0.45 0.47 0.49 0.50 0.53 0.57 0.59 0.57 0.63 0.64 0.65 0.65 0.60 0.63 0.70 0.72 0.77 0.82 0.90 0.95 1.00 1.08 1.10 1.14 1.16 1.17 1.18
0.72 0.45 0.55 0.64 0.62 0.66 0.78 0.85 0.86 0.65 0.61 0.52 0.48 0.46 0.44 0.43 0.41 0.43 0.45 0.48 0.47 0.45 0.50 0.52 0.58 0.64 0.68 0.68 0.67 0.64 0.61 0.64 0.69 0.74 0.78 0.83 0.89 0.95 0.99 1.06 1.12 1.16 1.21 1.24
0.90 0.51 0.64 0.80 0.73 0.72 0.74 0.74 0.76 0.79 0.72 0.58 0.53 0.49 0.48 0.46 0.42 0.43 0.41 0.41 0.42 0.43 0.46 0.48 0.52 0.59 0.66 0.68 0.66 0.66 0.65 0.64 0.67 0.72 0.78 0.83 0.86 0.93 1.04 1.10 1.22 1.29 1.32 1.41
1.06 0.74 0.94 0.76 0.59 0.60 0.64 0.68 0.71 0.69 0.60 0.55 0.52 0.50 0.49 0.46 0.41 0.39 0.38 0.37 0.36 0.38 0.39 0.40 0.43 0.50 0.60 0.64 0.65 0.67 0.68 0.71 0.74 0.74 0.83 0.92 0.94 0.97 1.06 1.14 1.25 1.35 1.36 1.39
1.22 0.93 0.64 0.43 0.41 0.55 0.64 0.68 0.65 0.53 0.44 0.41 0.41 0.41 0.43 0.40 0.37 0.38 0.38 0.40 0.39 0.39 0.41 0.40 0.42 0.48 0.57 0.64 0.65 0.67 0.69 0.73 0.77 0.80 0.90 1.00 0.99 1.00 1.05 1.10 1.17 1.21 1.24 1.23
1.28 1.09 0.63 0.43 0.27 0.31 0.49 0.73 0.53 0.46 0.44 0.44 0.44 0.52 0.46 0.38 0.35 0.36 0.35 0.36 0.41 0.44 0.42 0.45 0.47 0.49 0.58 0.68 0.77 0.81 0.81 0.83 0.86 0.95 1.05 1.08 1.05 1.03 0.99 0.98 0.99 0.97 0.96 0.93
1.08 1.02 0.56 0.39 0.24 0.26 0.67 0.81 0.44 0.42 0.45 0.47 0.51 0.54 0.46 0.36 0.33 0.37 0.39 0.39 0.41 0.46 0.48 0.51 0.53 0.54 0.58 0.65 0.81 0.89 0.92 0.94 0.96 1.02 1.06 1.07 1.03 0.96 0.92 0.86 0.86 0.83 0.80 0.78
0.82 1.06 0.77 0.41 0.32 0.59 0.75 0.47 0.39 0.40 0.44 0.47 0.46 0.39 0.34 0.35 0.35 0.34 0.35 0.37 0.43 0.50 0.54 0.54 0.59 0.66 0.66 0.70 0.78 0.84 0.88 0.91 0.91 0.92 0.95 0.99 0.98 0.93 0.88 0.86 0.85 0.83 0.82 0.83
0.73 0.82 0.70 0.54 0.58 0.60 0.50 0.45 0.39 0.40 0.42 0.42 0.41 0.40 0.34 0.32 0.33 0.35 0.38 0.39 0.45 0.55 0.60 0.61 0.62 0.66 0.71 0.69 0.68 0.72 0.78 0.83 0.82 0.79 0.80 0.83 0.86 0.87 0.88 0.87 0.85 0.84 0.84 0.86
0.61 0.62 0.53 0.50 0.44 0.40 0.40 0.43 0.39 0.37 0.38 0.41 0.43 0.40 0.37 0.35 0.35 0.33 0.35 0.39 0.45 0.50 0.55 0.57 0.58 0.59 0.62 0.58 0.56 0.58 0.63 0.70 0.74 0.74 0.74 0.73 0.74 0.80 0.86 0.88 0.85 0.82 0.83 0.86
0.56 0.50 0.41 0.40 0.40 0.40 0.37 0.34 0.31 0.29 0.30 0.36 0.39 0.38 0.37 0.38 0.37 0.37 0.37 0.40 0.44 0.49 0.54 0.56 0.53 0.54 0.54 0.53 0.51 0.53 0.54 0.58 0.62 0.68 0.73 0.75 0.75 0.80 0.87 0.88 0.94 0.93 0.85 0.83
0.62 0.49 0.49 0.50 0.42 0.38 0.36 0.35 0.33 0.31 0.30 0.29 0.32 0.37 0.34 0.36 0.35 0.36 0.41 0.41 0.42 0.45 0.50 0.56 0.55 0.52 0.52 0.52 0.51 0.56 0.57 0.57 0.60 0.66 0.70 0.73 0.75 0.79 0.88 0.91 0.95 0.96 0.95 0.91
0.46 0.37 0.35 0.34 0.29 0.28 0.31 0.32 0.31 0.32 0.33 0.34 0.34 0.34 0.35 0.36 0.36 0.38 0.41 0.40 0.43 0.44 0.45 0.49 0.53 0.54 0.53 0.54 0.54 0.57 0.61 0.62 0.62 0.65 0.70 0.71 0.71 0.73 0.79 0.84 0.89 0.90 0.93 0.94
0.24 0.24 0.25 0.23 0.24 0.23 0.25 0.27 0.26 0.26 0.28 0.33 0.36 0.34 0.35 0.37 0.37 0.41 0.45 0.46 0.44 0.43 0.43 0.44 0.47 0.52 0.54 0.53 0.54 0.57 0.60 0.64 0.66 0.66 0.70 0.71 0.69 0.70 0.72 0.76 0.80 0.82 0.87 0.92
0.15 0.20 0.27 0.23 0.19 0.19 0.21 0.21 0.20 0.22 0.24 0.26 0.27 0.29 0.34 0.39 0.43 0.47 0.50 0.48 0.43 0.40 0.40 0.40 0.42 0.45 0.50 0.54 0.54 0.54 0.57 0.60 0.62 0.65 0.70 0.73 0.72 0.70 0.71 0.72 0.75 0.78 0.80 0.88
0.16 0.15 0.16 0.16 0.16 0.17 0.17 0.20 0.23 0.25 0.25 0.26 0.29 0.33 0.37 0.40 0.40 0.42 0.46 0.49 0.47 0.46 0.43 0.40 0.42 0.45 0.47 0.52 0.54 0.52 0.54 0.63 0.65 0.66 0.67 0.69 0.72 0.72 0.72 0.73 0.74 0.74 0.74 0.80
0.24 0.23 0.21 0.21 0.20 0.19 0.19 0.22 0.26 0.28 0.28 0.31 0.37 0.38 0.37 0.37 0.36 0.37 0.42 0.45 0.45 0.46 0.47 0.48 0.48 0.45 0.45 0.48 0.51 0.53 0.55 0.58 0.64 0.65 0.67 0.69 0.70 0.71 0.71 0.73 0.75 0.74 0.72 0.78
0.25 0.27 0.27 0.29 0.28 0.26 0.24 0.23 0.25 0.26 0.29 0.32 0.33 0.34 0.36 0.38 0.41 0.43 0.44 0.41 0.37 0.36 0.38 0.42 0.44 0.43 0.43 0.46 0.51 0.53 0.55 0.57 0.57 0.59 0.64 0.69 0.73 0.72 0.73 0.73 0.72 0.72 0.72 0.76
0.21 0.21 0.21 0.23 0.25 0.26 0.25 0.25 0.26 0.27 0.28 0.29 0.31 0.34 0.35 0.38 0.40 0.40 0.36 0.35 0.36 0.39 0.40 0.38 0.41 0.40 0.40 0.45 0.50 0.51 0.55 0.57 0.58 0.61 0.66 0.73 0.76 0.73 0.74 0.73 0.72 0.71 0.72 0.73
0.16 0.17 0.19 0.21 0.22 0.23 0.25 0.25 0.25 0.26 0.28 0.29 0.29 0.29 0.30 0.34 0.36 0.36 0.33 0.34 0.41 0.48 0.45 0.42 0.39 0.37 0.39 0.43 0.49 0.50 0.54 0.57 0.60 0.63 0.66 0.70 0.72 0.72 0.72 0.74 0.74 0.73 0.72 0.73
0.17 0.18 0.21 0.23 0.24 0.24 0.25 0.25 0.25 0.26 0.26 0.25 0.27 0.30 0.32 0.34 0.34 0.35 0.35 0.35 0.37 0.39 0.39 0.39 0.36 0.38 0.42 0.48 0.51 0.51 0.54 0.58 0.61 0.64 0.67 0.69 0.71 0.72 0.71 0.72 0.74 0.74 0.74 0.74
0.19 0.20 0.23 0.25 0.26 0.26 0.26 0.25 0.24 0.24 0.23 0.22 0.23 0.24 0.25 0.27 0.28 0.29 0.31 0.37 0.40 0.41 0.37 0.34 0.36 0.43 0.50 0.54 0.51 0.50 0.54 0.57 0.60 0.62 0.66 0.69 0.71 0.72 0.72 0.74 0.77 0.76 0.76 0.76
0.20 0.22 0.23 0.25 0.27 0.28 0.27 0.25 0.25 0.24 0.24 0.24 0.26 0.28 0.30 0.31 0.32 0.34 0.36 0.34 0.36 0.37 0.35 0.35 0.41 0.47 0.50 0.48 0.47 0.49 0.53 0.57 0.59 0.61 0.64 0.68 0.72 0.76 0.77 0.75 0.75 0.75 0.76 0.76
0.22 0.22 0.22 0.22 0.22 0.22 0.22 0.22 0.23 0.24 0.24 0.24 0.26 0.28 0.31 0.31 0.29 0.29 0.35 0.37 0.38 0.37 0.34 0.37 0.42 0.44 0.44 0.41 0.42 0.47 0.52 0.56 0.60 0.62 0.64 0.67 0.70 0.72 0.74 0.75 0.75 0.72 0.70 0.70
0.21 0.21 0.20 0.20 0.21 0.22 0.22 0.21 0.20 0.19 0.20 0.20 0.20 0.22 0.25 0.29 0.34 0.32 0.30 0.31 0.33 0.33 0.32 0.34 0.39 0.41 0.40 0.39 0.42 0.47 0.52 0.57 0.64 0.68 0.69 0.69 0.68 0.69 0.70 0.72 0.74 0.72 0.69 0.67
0.19 0.19 0.19 0.20 0.21 0.21 0.22 0.22 0.21 0.20 0.20 0.21 0.18 0.18 0.20 0.22 0.24 0.25 0.26 0.27 0.27 0.29 0.30 0.31 0.34 0.37 0.37 0.40 0.43 0.47 0.51 0.55 0.58 0.61 0.62 0.64 0.66 0.67 0.68 0.68 0.68 0.67 0.66 0.64
0.16 0.17 0.17 0.17 0.15 0.16 0.19 0.22 0.24 0.23 0.23 0.26 0.25 0.21 0.21 0.22 0.22 0.23 0.24 0.24 0.25 0.26 0.27 0.29 0.31 0.33 0.35 0.38 0.41 0.43 0.45 0.48 0.51 0.54 0.57 0.61 0.64 0.65 0.65 0.65 0.66 0.65 0.64 0.63